When you browse on this site, cookies collect data to enhance your experience and personalize the content and advertising you see.
Visit our Privacy Policy to learn more. By continuing to use the site, you agree to this use of cookies and data.
  • In Spain
  • List of Countries
  • For 7 days
  • Water Temperature
  • Weather Map
  • Weather Widgets
  • user-avatar
    Login

    Hourly Weather Maripasoula

    Today, 28 February, Friday

    Time Temperature Precipitation Wind Pressure Humidity
    00:00 +23°C° 0 mm 1 mps 748 mmHg 87%
    01:00 +23°C° 0 mm 1 mps 748 mmHg 90%
    02:00 +22°C° 0 mm 1 mps 747 mmHg 94%
    03:00 +22°C° 0 mm 1 mps 747 mmHg 95%
    04:00 +19°C° 0 mm 0 mps 747 mmHg 96%
    05:00 +19°C° 0 mm 0 mps 747 mmHg 97%
    06:00 +23°C° 0 mm 1 mps 748 mmHg 90%
    07:00 +24°C° 0 mm 1 mps 748 mmHg 83%
    08:00 +26°C° 0 mm 2 mps 749 mmHg 76%
    09:00 +27°C° 0 mm 2 mps 749 mmHg 71%
    10:00 +28°C° 0 mm 2 mps 749 mmHg 66%
    11:00 +29°C° 0 mm 2 mps 749 mmHg 62%
    12:00 +31°C° 0 mm 1 mps 748 mmHg 53%
    13:00 +33°C° 0 mm 1 mps 747 mmHg 45%
    14:00 +35°C° 0 mm 1 mps 746 mmHg 37%
    15:00 +34°C° 0 mm 1 mps 746 mmHg 40%
    16:00 +34°C° 0 mm 1 mps 746 mmHg 44%
    17:00 +33°C° 0 mm 1 mps 745 mmHg 47%
    18:00 +31°C° 0 mm 1 mps 746 mmHg 55%
    19:00 +28°C° 0 mm 1 mps 746 mmHg 63%
    20:00 +26°C° 0 mm 1 mps 747 mmHg 70%
    21:00 +25°C° 0 mm 1 mps 747 mmHg 76%
    22:00 +25°C° 0 mm 1 mps 748 mmHg 81%
    23:00 +24°C° 0 mm 1 mps 748 mmHg 86%

    Tomorrow, 29 February, Saturday

    Time Temperature Precipitation Wind Pressure Humidity
    00:00 +23°C° 0 mm 1 mps 748 mmHg 89%
    01:00 +22°C° 0 mm 1 mps 747 mmHg 93%
    02:00 +20°C° 0 mm 0 mps 747 mmHg 97%
    03:00 +19°C° 0 mm 0 mps 747 mmHg 97%
    04:00 +19°C° 0 mm 0 mps 747 mmHg 98%
    05:00 +19°C° 0 mm 0 mps 747 mmHg 99%
    06:00 +23°C° 0 mm 1 mps 748 mmHg 90%
    07:00 +25°C° 0 mm 1 mps 748 mmHg 80%
    08:00 +26°C° 0 mm 1 mps 749 mmHg 71%
    09:00 +29°C° 0 mm 1 mps 749 mmHg 61%
    10:00 +32°C° 0 mm 1 mps 749 mmHg 51%
    11:00 +34°C° 0 mm 1 mps 748 mmHg 41%
    12:00 +36°C° 0 mm 1 mps 747 mmHg 37%
    13:00 +37°C° 0 mm 1 mps 746 mmHg 33%
    14:00 +39°C° 0 mm 1 mps 745 mmHg 29%
    15:00 +37°C° 0 mm 1 mps 745 mmHg 32%
    16:00 +36°C° 0 mm 1 mps 745 mmHg 36%
    17:00 +35°C° 0 mm 1 mps 744 mmHg 39%
    18:00 +32°C° 0 mm 1 mps 745 mmHg 48%
    19:00 +30°C° 0 mm 2 mps 746 mmHg 58%
    20:00 +28°C° 0 mm 2 mps 747 mmHg 68%
    21:00 +26°C° 0 mm 2 mps 747 mmHg 74%
    22:00 +25°C° 0 mm 1 mps 748 mmHg 79%
    23:00 +24°C° 0 mm 1 mps 748 mmHg 85%

    Day after tomorrow, 1 March, Sunday

    Time Temperature Precipitation Wind Pressure Humidity
    00:00 +24°C° 0 mm 1 mps 748 mmHg 88%
    01:00 +23°C° 0 mm 1 mps 747 mmHg 90%
    02:00 +22°C° 0 mm 1 mps 747 mmHg 93%
    03:00 +22°C° 0 mm 1 mps 747 mmHg 95%
    04:00 +22°C° 0 mm 1 mps 747 mmHg 97%
    05:00 +20°C° 0 mm 0 mps 747 mmHg 98%
    06:00 +23°C° 0 mm 1 mps 747 mmHg 91%
    07:00 +25°C° 0 mm 1 mps 748 mmHg 83%
    08:00 +27°C° 0 mm 1 mps 748 mmHg 75%
    09:00 +30°C° 0 mm 1 mps 748 mmHg 64%
    10:00 +32°C° 0 mm 1 mps 748 mmHg 54%
    11:00 +35°C° 0 mm 1 mps 748 mmHg 43%
    12:00 +36°C° 0 mm 1 mps 747 mmHg 39%
    13:00 +37°C° 0 mm 1 mps 746 mmHg 34%
    14:00 +40°C° 0 mm 1 mps 744 mmHg 30%
    15:00 +37°C° 0 mm 1 mps 744 mmHg 34%
    16:00 +36°C° 0 mm 1 mps 744 mmHg 37%
    17:00 +35°C° 0 mm 1 mps 744 mmHg 41%
    18:00 +32°C° 0.1 mm 1 mps 744 mmHg 55%
    19:00 +29°C° 0.1 mm 1 mps 745 mmHg 69%
    20:00 +27°C° 0.1 mm 1 mps 746 mmHg 82%
    21:00 +26°C° 0 mm 1 mps 746 mmHg 85%
    22:00 +25°C° 0 mm 1 mps 747 mmHg 88%
    23:00 +25°C° 0 mm 1 mps 747 mmHg 90%

    2 March, Monday

    Time Temperature Precipitation Wind Pressure Humidity
    00:00 +24°C° 0 mm 1 mps 747 mmHg 93%
    01:00 +24°C° 0 mm 1 mps 746 mmHg 95%
    02:00 +23°C° 0 mm 1 mps 746 mmHg 97%
    03:00 +21°C° 0 mm 0 mps 746 mmHg 98%
    04:00 +21°C° 0 mm 0 mps 746 mmHg 98%
    05:00 +21°C° 0 mm 0 mps 746 mmHg 99%
    06:00 +24°C° 0 mm 1 mps 747 mmHg 92%
    07:00 +25°C° 0 mm 1 mps 747 mmHg 85%
    08:00 +27°C° 0 mm 1 mps 748 mmHg 79%
    09:00 +29°C° 0 mm 1 mps 747 mmHg 68%
    10:00 +32°C° 0 mm 2 mps 747 mmHg 57%
    11:00 +35°C° 0 mm 2 mps 747 mmHg 46%
    12:00 +36°C° 0 mm 2 mps 746 mmHg 44%
    13:00 +37°C° 0 mm 2 mps 745 mmHg 41%
    14:00 +38°C° 0 mm 2 mps 744 mmHg 38%
    15:00 +36°C° 0 mm 2 mps 744 mmHg 42%
    16:00 +35°C° 0 mm 2 mps 744 mmHg 46%
    17:00 +34°C° 0 mm 2 mps 743 mmHg 50%
    18:00 +31°C° 0 mm 1 mps 744 mmHg 58%
    19:00 +29°C° 0 mm 1 mps 745 mmHg 65%
    20:00 +27°C° 0 mm 1 mps 745 mmHg 72%
    21:00 +27°C° 0 mm 1 mps 746 mmHg 78%
    22:00 +26°C° 0 mm 1 mps 746 mmHg 84%
    23:00 +25°C° 0 mm 1 mps 746 mmHg 90%

    3 March, Tuesday

    Time Temperature Precipitation Wind Pressure Humidity
    00:00 +25°C° 0 mm 1 mps 746 mmHg 92%
    01:00 +22°C° 0 mm 0 mps 746 mmHg 94%
    02:00 +22°C° 0 mm 0 mps 745 mmHg 95%
    03:00 +22°C° 0 mm 0 mps 746 mmHg 96%
    04:00 +22°C° 0 mm 0 mps 746 mmHg 97%
    05:00 +22°C° 0 mm 0 mps 746 mmHg 99%
    06:00 +25°C° 0 mm 1 mps 747 mmHg 92%
    07:00 +26°C° 0 mm 1 mps 747 mmHg 84%
    08:00 +28°C° 0 mm 1 mps 748 mmHg 77%
    09:00 +30°C° 0 mm 1 mps 747 mmHg 66%
    10:00 +34°C° 0 mm 2 mps 747 mmHg 55%
    11:00 +36°C° 0 mm 2 mps 747 mmHg 44%
    12:00 +36°C° 0 mm 2 mps 746 mmHg 42%
    13:00 +37°C° 0 mm 2 mps 745 mmHg 41%
    14:00 +37°C° 0 mm 2 mps 744 mmHg 39%
    15:00 +36°C° 0 mm 2 mps 744 mmHg 43%
    16:00 +35°C° 0 mm 2 mps 744 mmHg 47%
    17:00 +34°C° 0 mm 2 mps 744 mmHg 51%
    18:00 +31°C° 0.1 mm 2 mps 744 mmHg 60%
    19:00 +29°C° 0.1 mm 2 mps 745 mmHg 68%
    20:00 +27°C° 0.1 mm 2 mps 745 mmHg 77%
    21:00 +26°C° 0 mm 2 mps 746 mmHg 79%
    22:00 +26°C° 0 mm 1 mps 747 mmHg 81%
    23:00 +25°C° 0 mm 1 mps 747 mmHg 83%

    4 March, Wednesday

    Time Temperature Precipitation Wind Pressure Humidity
    00:00 +24°C° 0 mm 1 mps 747 mmHg 86%
    01:00 +24°C° 0 mm 1 mps 746 mmHg 90%
    02:00 +21°C° 0 mm 0 mps 746 mmHg 94%
    03:00 +21°C° 0 mm 0 mps 746 mmHg 95%
    04:00 +20°C° 0 mm 0 mps 746 mmHg 97%
    05:00 +20°C° 0 mm 0 mps 746 mmHg 99%
    06:00 +24°C° 0 mm 1 mps 747 mmHg 90%
    07:00 +26°C° 0 mm 1 mps 748 mmHg 81%
    08:00 +28°C° 0 mm 1 mps 748 mmHg 72%
    09:00 +30°C° 0 mm 2 mps 748 mmHg 61%
    10:00 +34°C° 0 mm 2 mps 748 mmHg 49%
    11:00 +36°C° 0 mm 2 mps 748 mmHg 38%
    12:00 +37°C° 0 mm 2 mps 747 mmHg 35%
    13:00 +38°C° 0 mm 2 mps 746 mmHg 32%
    14:00 +39°C° 0 mm 2 mps 745 mmHg 29%
    15:00 +38°C° 0 mm 2 mps 745 mmHg 33%
    16:00 +35°C° 0 mm 1 mps 745 mmHg 38%
    17:00 +33°C° 0 mm 1 mps 745 mmHg 43%
    18:00 +32°C° 0 mm 2 mps 745 mmHg 50%
    19:00 +30°C° 0 mm 2 mps 746 mmHg 58%
    20:00 +29°C° 0 mm 2 mps 747 mmHg 65%
    21:00 +28°C° 0 mm 2 mps 747 mmHg 69%
    22:00 +26°C° 0 mm 1 mps 748 mmHg 74%
    23:00 +25°C° 0 mm 1 mps 748 mmHg 78%
    Show more